TimeMST,TemperatureF,Dew PointF,Humidity,Sea Level PressureIn,VisibilityMPH,Wind Direction,Wind SpeedMPH,Gust SpeedMPH,PrecipitationIn,Events,Conditions,WindDirDegrees,DateUTC
12:15 AM,30.2,26.6,86,29.89,10.0,NW,6.9,-,N/A,,Overcast,310,2013-12-20 07:15:00
12:35 AM,30.2,24.8,80,29.89,10.0,WSW,8.1,-,N/A,,Overcast,250,2013-12-20 07:35:00
12:55 AM,28.4,24.8,86,29.89,10.0,West,6.9,-,N/A,,Overcast,280,2013-12-20 07:55:00
1:15 AM,28.4,24.8,86,29.88,10.0,WNW,8.1,-,N/A,,Overcast,300,2013-12-20 08:15:00
1:35 AM,28.4,24.8,86,29.88,10.0,NW,8.1,-,N/A,,Overcast,320,2013-12-20 08:35:00
1:55 AM,28.4,24.8,86,29.88,10.0,NW,12.7,-,N/A,,Overcast,320,2013-12-20 08:55:00
2:15 AM,28.4,24.8,86,29.89,10.0,NW,13.8,-,N/A,,Overcast,310,2013-12-20 09:15:00
2:35 AM,28.4,24.8,86,29.89,10.0,NW,13.8,-,N/A,,Overcast,310,2013-12-20 09:35:00
2:55 AM,28.4,24.8,86,29.89,10.0,NW,15.0,-,N/A,,Overcast,310,2013-12-20 09:55:00
3:15 AM,28.4,23.0,80,29.89,10.0,NW,15.0,-,N/A,,Overcast,320,2013-12-20 10:15:00
3:35 AM,26.6,21.2,80,29.89,10.0,NW,13.8,-,N/A,,Overcast,320,2013-12-20 10:35:00
3:55 AM,26.6,21.2,80,29.89,10.0,NW,16.1,-,N/A,,Overcast,310,2013-12-20 10:55:00
4:15 AM,26.6,21.2,80,29.89,10.0,NW,12.7,-,N/A,,Overcast,320,2013-12-20 11:15:00
4:35 AM,26.6,21.2,80,29.89,10.0,NW,11.5,-,N/A,,Overcast,310,2013-12-20 11:35:00
4:55 AM,26.6,19.4,74,29.89,10.0,NW,12.7,-,N/A,,Overcast,320,2013-12-20 11:55:00
5:15 AM,26.6,19.4,74,29.89,10.0,NW,13.8,-,N/A,,Overcast,310,2013-12-20 12:15:00
5:35 AM,26.6,19.4,74,29.89,10.0,NW,13.8,-,N/A,,Overcast,310,2013-12-20 12:35:00
5:55 AM,26.6,19.4,74,29.90,10.0,NW,12.7,-,N/A,,Overcast,310,2013-12-20 12:55:00
6:15 AM,26.6,19.4,74,29.89,10.0,NW,9.2,-,N/A,,Overcast,310,2013-12-20 13:15:00
6:35 AM,26.6,19.4,74,29.89,10.0,NW,9.2,-,N/A,,Overcast,320,2013-12-20 13:35:00
6:50 AM,-9999,-9999,N/A,29.90,110.0,WNW,11.5,-,N/A,,Partly Cloudy,300,2013-12-20 13:50:00
7:49 AM,24.8,19.4,80,29.91,10.0,WNW,11.5,-,N/A,,Mostly Cloudy,300,2013-12-20 14:49:00
8:50 AM,24.8,19.4,80,29.93,10.0,WNW,11.5,-,N/A,,Overcast,300,2013-12-20 15:50:00
9:48 AM,24.8,19.4,80,29.95,10.0,WNW,11.5,-,N/A,,Mostly Cloudy,300,2013-12-20 16:48:00
10:54 AM,24.8,19.4,80,29.96,10.0,WNW,11.5,-,N/A,,Mostly Cloudy,300,2013-12-20 17:54:00
11:54 AM,26.6,21.2,80,29.95,10.0,Calm,Calm,-,N/A,,Mostly Cloudy,0,2013-12-20 18:54:00
12:54 PM,26.6,21.2,80,29.94,10.0,NW,9.2,-,N/A,,Mostly Cloudy,310,2013-12-20 19:54:00
1:47 PM,28.4,21.2,74,29.92,10.0,Calm,Calm,-,N/A,,Scattered Clouds,0,2013-12-20 20:47:00
2:51 PM,28.4,19.4,69,29.91,12.0,Calm,Calm,-,N/A,,Scattered Clouds,0,2013-12-20 21:51:00
3:47 PM,26.6,19.4,74,29.93,12.0,Variable,3.5,-,N/A,,Scattered Clouds,0,2013-12-20 22:47:00
4:48 PM,24.8,19.4,80,29.93,15.0,Variable,3.5,-,N/A,,Scattered Clouds,0,2013-12-20 23:48:00
5:48 PM,24.8,19.4,80,-9999,-9999.0,NW,5.8,-,N/A,,Scattered Clouds,320,2013-12-21 00:48:00
6:55 PM,21.2,19.4,93,-9999,-9999.0,Calm,Calm,-,N/A,,Scattered Clouds,0,2013-12-21 01:55:00
7:50 PM,21.2,17.6,86,-9999,-9999.0,Calm,Calm,-,N/A,,Scattered Clouds,0,2013-12-21 02:50:00
8:47 PM,21.2,19.4,93,-9999,-9999.0,Calm,Calm,-,N/A,,Scattered Clouds,0,2013-12-21 03:47:00
9:15 PM,19.4,19.4,100,29.90,6.0,SE,3.5,-,N/A,,Clear,140,2013-12-21 04:15:00
9:35 PM,21.2,19.4,93,29.90,7.0,SE,3.5,-,N/A,,Clear,140,2013-12-21 04:35:00
9:55 PM,19.4,17.6,93,29.89,5.0,SE,4.6,-,N/A,,Clear,130,2013-12-21 04:55:00
10:15 PM,19.4,17.6,93,29.87,5.0,SE,6.9,-,N/A,,Clear,140,2013-12-21 05:15:00
10:35 PM,19.4,17.6,93,29.86,5.0,SSE,5.8,-,N/A,,Clear,150,2013-12-21 05:35:00
10:55 PM,17.6,15.8,93,29.85,6.0,South,4.6,-,N/A,,Clear,170,2013-12-21 05:55:00
11:15 PM,19.4,17.6,93,29.85,6.0,Calm,Calm,-,N/A,,Clear,0,2013-12-21 06:15:00
11:35 PM,19.4,17.6,93,29.84,5.0,Calm,Calm,-,N/A,,Clear,0,2013-12-21 06:35:00
11:55 PM,19.4,19.4,100,29.84,6.0,Calm,Calm,-,N/A,,Mostly Cloudy,0,2013-12-21 06:55:00